YAOGAN-31 B

Satellite information

Favourite Embed

Satellite Type and Status

PAYLOADIN ORBIT

Key statistics

Satellite YAOGAN-31 B at a glance.

Uptime

2706

Days in orbit

Revolutions

≈ 13.5

Per day

Orbit

LEO

Low Earth Orbit

Inclination

63.4

Latest

Satellite identification and parameters

Extended collection of information and parameters for YAOGAN-31 B.

Object identification

Identified? True

Debris? False

Object name: YAOGAN-31 B

International designator: 2018-034B

Object number (NORAD): 43276

Object ID (CCSDS): 43276

Country: PEOPLES REPUBLIC OF CHINA (PRC)

Current information (Y/N): Y

RCS size: LARGE

Orbital parameters

Period: 107.03 minutes

Inclination: 63.3951 deg

SMA: 7467.309 km

Apoapsis: 1275.793 km

Periapsis: 902.554 km

RAAN: 102.3917 deg

Eccentricy: 0.02499154

Argument of periapsis: 6.5701 deg

Mean anomaly: 353.8501 deg

Mean motion: 13.45416063 rev/day

Mean motion (dot): -0.00000032 rev/day2

B* drag term: 0.000081331742 1/REarth

Two-line elements (TLE)

Creation date: Sept. 6, 2025, 2:09 a.m.

Reference frame: TEME

Reference center: EARTH

Epoch: Sept. 5, 2025, 11:50 p.m. UTC

TLE line 0: 0 YAOGAN-31 B

TLE line 1: 1 43276U 18034B 25248.99359558 -.00000032 00000-0 81332-4 0 9999

TLE line 2: 2 43276 63.3951 102.3917 0249915 6.5701 353.8501 13.45416063363980

Live tracking on map

Real-time ground track for satellite YAOGAN-31 B.

In-orbit conjunctions

There are no conjunctions computed for YAOGAN-31 B, at the moment. Check back to stay up to date, as we update our databases every day.

Go to all conjunctions

Associated space launch

YAOGAN-31 B was lifted into orbit during the mission ‘Long March 4C | 3 x Yaogan-31-01’, on board a Long March 4C space rocket.

The launch took place on April 10, 2018, 4:25 a.m. from Launch Area 4 (SLS-2 / 603).

For more information about the launch, click the button.

Launch to space Long March 4C | 3 x Yaogan-31-01
Long March 4C | 3 x Yaogan-31-01

Agency: N/A

Status: Launch Successful

Launch date: April 10, 2018, 4:25 a.m. UTC

Rocket: Long March 4C

Launch pad: Launch Area 4 (SLS-2 / 603)

Location: Jiuquan Satellite Launch Center, People's Republic of China

...

Latest news about this satellite

There are no fresh news available about this satellite. Check back as we update our databases every day.


Newsletter sign-up

Weekly statistics, charts and insights to help you stay on top of the space industry.